Tracking 19247 objects as of 22-Sep-2018
HD Live streaming from Space Station
objects crossing your sky now

FENGYUN 1C DEB

Track FENGYUN 1C DEB now!
10-day predictions


NORAD ID: 36224
Int'l Code: 1999-025DUZ
Perigee: 777.4 km
Apogee: 944.5 km
Inclination: 99.1 °
Period: 102.0 minutes
Semi major axis: 7231 km
RCS: 0.0081 m2 (small)
Launch date: May 10, 1999
Source: People's Republic of China (PRC)
Launch site: Taiyaun Space Center, China (TSC)

Note: This is SATELLITE DEBRIS
aabbcc
Your satellite tracking list
Your tracking list is empty




NASA's NSSDC Master Catalog

Two Line Element Set (TLE):
1 36224U 99025DUZ 18264.82494187 +.00000055 +00000-0 +52724-4 0  9990
2 36224 099.1010 277.3549 0115517 239.6799 119.2905 14.11614918271925
Source of the keplerian elements: AFSPC